Rbgn^[z[y[W
メイン
   新天体発見情報
     Comet C/2022 J1 (Maury-Attard)
投稿するにはまず登録を

スレッド表示 | 古いものから 前のトピック | 次のトピック | 下へ
投稿者 スレッド
佐藤裕久
投稿日時: 2022-5-18 12:31
モデレータ
登録日: 2005-6-12
居住地: 日本
投稿: 2443
オンライン
Comet C/2022 J1 (Maury-Attard)

Alain Mauryの通報によると、Georges Attard (Mougins, フランス)と彼は、5月5日、チリのSan 
Pedro de Atacamaにある0.28-m f/2.2 Schmidt反射望遠鏡で得た画像から彗星を発見した。
この天体は、6"の集光したコマと、 p.a. 220-260°にわたって18"の尾をもつとされた。
小惑星センターのPCCP webpageに公表後、吉本勝己氏 (山口県熊毛郡平生町, 5月5.8日UT, 60-秒
露出12枚のスタック, 0.50-m f/6.8 反射望遠鏡, Siding Spring, NSW, オートラリア,遠隔操作: 
拡散した22"のコマが見えるが尾はない。全光度は17.7等であった)、M. Mattiazzo (Swan Hill, 
Victoria, オーストラリア, 5月5.8日UT, 60-秒露出10枚のスタック, 0.43-m アストログラフ, 
Siding Spring, NSW, オートラリア,遠隔操作: 拡散状。4".9の円形範囲で測定したGAIA DR2光度
は18.1等であった)、佐藤英貴氏(東京都文京区, 5月6.79日, 60-秒露出10枚のスタック,0.51-m 
f/6.8 アストログラフ, Siding Spring, NSW, オーストラリア, 遠隔操作: 強く集光した外側に
65"のコマが見えるが尾はなかった。32".9の円形範囲で測定した光度は16.4等であった)や佐藤裕久
(福島県須賀川市, 5月10.76日, 60-秒露出24枚のスタック, 0.25-m f/4 反射望遠鏡; 中程度に集光
した約15"のコマが見えるが尾はない。全光度は17.2等であった)らCCD位置観測者によって彗星状と
観測された。

彗星機能の報告は次のとおり、

OC   Date        Reporter           Coma    Tail    PA          Exposures
Q62  2022-05-05  N. Paul           16"                         16x60s
Q62  2022-05-05  K. Yoshimoto      22"                         12x60s
Q62  2022-05-05  M. Mattiazzo      10"
Q62  2022-05-06  N. Paul           17".6                       16x60s
Q62  2022-05-06  H. Sato           65"                         10x60s
M21  2022-05-06  A. Aletti          4"      10"     230
X02  2022-05-06  E. Bryssinck      12"                         15x60s
L87  2022-05-07  J. Camarasa       10".5
L81  2022-05-07  D. De Martin       6"
Q62  2022-05-07  N. Paul           16".5     9".8   287        16x60s
L81  2022-05-08  R. Ligustri       30"
Y00  2022-05-08  C. Jacques        30"                        100x30s
Q23  2022-05-10  H. Sato           15"                         24x60s

発見位置は次のとおり、

     2022 UT             R.A. (2000) Decl.       Mag.   Observer
     May   5.38566   21 25 24.73   -25 12 13.7   17.6   Maury
           5.39133   21 25 24.09   -25 12 07.4   17.4     "
           5.39706   21 25 23.45   -25 12 00.8   17.4     "

MPCの楕円軌道要素、位置推算表は次のとおり、

Orbital elements:
    C/2022 J1 (Maury-Attard)                                                    
Epoch 2022 Jan. 21.0 TT = JDT 2459600.5                                         
T 2022 Feb. 16.76045 TT                                 Rudenko                 
q   1.5765573            (2000.0)            P               Q                  
n   0.00760218     Peri.  303.79116     +0.31992072     +0.00672173             
a  25.6159540      Node   280.57461     -0.14568301     -0.98773370             
e   0.9384541      Incl.  105.46603     -0.93617690     +0.15600304             
P 130                                                                           
From 103 observations 2022 May 5-10, mean residual 0".5.                        
                                                                                
Ephemeris:
Date    TT    R. A. (2000) Decl.     Delta      r    Elong.  Phase   m1
2022 04 11    21 54 39.4 -32 16 29   1.9345  1.7252    62.8    31.1  18.7
...
2022 04 26    21 39 48.9 -28 05 10   1.7334  1.8121    77.9    32.9  18.7
...
2022 05 04    21 27 50.3 -25 38 57   1.6199  1.8644    87.1    32.7  18.7
...
2022 05 10    21 16 29.4 -23 39 35   1.5361  1.9059    94.7    31.9  18.6
2022 05 11    21 14 22.7 -23 18 39   1.5224  1.9130    96.0    31.7  18.6
2022 05 12    21 12 12.2 -22 57 25   1.5089  1.9202    97.3    31.4  18.6
...
2022 05 18    20 57 43.5 -20 42 27   1.4315  1.9640   105.7    29.7  18.6
...
2022 05 26    20 34 28.3 -17 19 49   1.3426  2.0248   117.9    26.2  18.6
...
2022 06 10    19 39 54.8 -09 52 22   1.2506  2.1449   142.2    16.9  18.7

(MPEC 2022-J88、CBET 5121、oaa-comet 3276)

スレッド表示 | 古いものから 前のトピック | 次のトピック | トップ

投稿するにはまず登録を
 
© 1999 Tsutomu Seki.